Web Car-Videos.com

 

Car-videos.com

Videos
Performance Statistics
Unit Converter
Horsepower & Torque
Speed/RPM Calculator
Tires
FAQ
Contact Us
Updates and News Feed
Advertise with Us!  new!
Link to Us


Add to My AOL

Subscribe in NewsGator Online








Performance Home  |  List of all Cars  |  Custom Statistics  |  Tracks

Sebring International Race Circuit
Sebring, FL
5.2 Miles

The first lap time is from a dead stop and the 2nd is taken when the car passes the starting line at the end of the 1st lap.

Car First Lap Second Lap
1.2006 Bugatti Veyron 16.4 (7MAT)3:15.13:11.2
2.1998 Mercedes-Benz CLK-GTR (6M)3:17.23:13.8
3.1994 McLaren F1 (6M)3:19.23:15.0
4.2003 Ford Mustang SVT Cobra (6M)3:40.93:36.3
5.2001 Panoz Esperante (5M)3:48.83:43.8
6.1998 Chevrolet Camaro Z28 (6M)3:50.43:44.3
7.2004 Pontiac GTO 5.7 (6M)3:51.23:46.1
8.1996 Aston Martin DB7 (5M)3:51.53:45.8
9.2004 Subaru Impreza WRX STi (USA) (6M)3:51.93:47.4
10.2007 Lexus IS 350 (6M)3:52.63:47.3
11.1997 BMW M3 (5M)3:53.73:48.0
12.1993 Nissan 300ZX Turbo (5M)3:53.93:47.9
13.2007 Infiniti G35 Sport Sedan (6M)3:54.23:48.8
14.1996 Nissan Skyline GT-R (R33) (5M)3:54.43:49.5
15.2003 BMW Z4 3.0i (6M)3:55.93:50.8
16.1994 Dodge Stealth R/T Turbo (6M)3:55.93:50.5
17.2002 Acura RSX Type-R (Jap) (6M)3:56.63:51.3
18.2003 Dodge Neon SRT-4 (5M)3:56.63:51.3
19.2001 Porsche Boxster S (6M)3:56.83:51.8
20.2002 Infiniti Q45 (5A)3:57.13:50.8
21.1985 Chevrolet Corvette (4M)3:57.93:51.9
22.1994 Mitsubishi 3000GT VR-4 (6M)3:58.43:53.7
23.2002 Subaru Impreza WRX Sedan AccessECU1 (5M)3:59.83:54.6
24.2002 Lexus SC430 (5A)4:00.03:54.9
25.2001 BMW 540 i (5A)4:00.23:54.7
26.2002 Mercedes-Benz CLK 430 Convertible (5A)4:00.63:57.4
27.1995 Ford Escort RS Cosworth (UK) (5M)4:03.03:57.6
28.2004 Nissan Maxima 3.5 SE (6M)4:03.43:56.7
29.1998 Ford Contour SVT (5M)4:04.93:59.0
30.2001 Cadillac Deville DTS (4A)4:05.33:59.7
31.1999 Cadillac Seville STS (4A)4:05.73:59.4
32.2002 Acura RSX Type-S (6M)4:05.83:59.3
33.2003 Infiniti G35 Sedan (5A)4:06.24:00.5
34.1989 Toyota Supra Turbo (5M)4:06.24:00.3
35.1996 Honda Prelude VTEC (5M)4:06.53:59.5
36.1999 BMW 328 i (5M)4:06.94:00.6
37.2002 Ford Focus SVT (6M)4:07.04:01.3
38.2001 Toyota MR2 Spyder (5M)4:07.44:01.9
39.1991 Chevrolet Lumina Z34 (5M)4:07.54:01.7
40.2002 Acura RSX (5M)4:08.44:02.2
41.1992 Subaru SVX AWD (4A)4:09.04:03.5
42.2002 Pontiac Vibe GT (6M)4:09.24:03.3
43.2002 Nissan Sentra SE-R Spec V (6M)4:09.74:02.8
44.1998 Mercedes-Benz E 320 (5A)4:10.94:04.8
45.2001 Lincoln LS V6 (5M)4:12.64:06.0
46.2001 BMW 325 i (5M)4:13.44:06.6
47.2003 Hyundai Tiburon GT (6M)4:13.64:07.9
48.2000 Audi TT Coupe 180HP (5M)4:13.64:08.4
49.1999 Pontiac Grand Am GT (4A)4:13.74:06.8
50.2001 Acura 3.2CL (5A)4:14.04:07.0
51.2000 Honda Civic SI (5M)4:14.44:07.4
52.2003 Honda Civic SI (5M)4:15.44:09.8
53.2003 Jaguar S-Type 3.0 (6A)4:16.04:09.1
54.1997 Volkswagen Jetta GLX VR6 (5M)4:16.84:10.5
55.2003 Honda Accord EX V-6 Sedan (5A)4:17.14:11.4
56.1998 Mazda 626 EX (4A)4:17.64:10.6
57.2003 Nissan Murano SL AWD (CVT)4:17.64:11.2
58.2003 Lexus GS 300 (5A)4:17.64:11.4
59.1999 Saab 9-3 SE 5-door (5M)4:18.64:14.9
60.1997 Chevrolet Cavalier Z24 (5M)4:18.84:12.1
61.1994 Chevrolet Beretta Z26 (4A)4:19.64:12.4
62.1990 Chevrolet Beretta GT (5M)4:21.54:14.5
63.2001 Chrysler Sebring LTD Convertible (4A)4:22.44:16.1
64.1998 Lincoln Town Car (4A)4:22.44:15.7
65.1997 Cadillac Catera (4A)4:23.44:17.0
66.1998 Ford Crown Victoria Police Edition (4A)4:23.84:17.3
67.2005 Ford Freestyle SEL AWD (CVT)4:23.84:17.2
68.1999 Lexus RX300 (4A)4:24.54:17.9
69.2003 Lincoln Aviator (5A)4:24.74:17.8
70.2003 Hyundai Sonata GLS (4A)4:24.94:18.5
71.2003 Toyota Corolla LE (5M)4:25.44:20.1
72.1997 Ford Probe (5M)4:25.64:18.9
73.2000 Jeep Grand Cherokee V8 Limited 4WD (4A)4:26.74:19.7
74.2004 Suzuki Verona EX (4A)4:28.14:21.2
75.1996 Geo Prizm 1.6 (5M)4:30.24:23.0
76.1996 Suzuki Esteem GLX (5M)4:31.74:25.2
77.1992 Chevrolet Lumina Euro (4A)4:32.04:25.6
78.2002 Kia Rio (5M)4:32.34:25.7
79.2002 Kia Sedona EX (5A)4:33.24:26.2
80.1979 Alfa Romeo Sprint Veloce (5M)4:34.34:26.9
81.2003 Lincoln Navigator (4A)4:36.14:29.6
82.2002 Chevrolet Avalanche Z71 (4A)4:37.94:31.6
83.1986 Honda Civic CRX HF (5M)4:42.94:34.8
84.1995 Land Rover Discovery (4A)4:52.04:46.0
85.1994 Ford Aspire 4-door (5M)4:53.34:45.9
86.2001 Hummer (AM General) H1 (4A)5:04.34:56.7